This is the latest recevied weather packets stored in our database for station/object AB4KN. If no packets are shown the sender has not sent any weather packets the latest 10 day(s).
| Time | Temp. | Humidity | Pressure | Rain* | Wind** | Luminosity | Snow |
|---|---|---|---|---|---|---|---|
| 1778009387 | 25.56° C | 33% | 1019.7 hPa | 0 mm | - | 35 W/m² | - |
| 1778009086 | 25.56° C | 35% | 1019.8 hPa | 0 mm | - | 34 W/m² | - |
| 1778008783 | 25.56° C | 36% | 1019.6 hPa | 0 mm | - | 36 W/m² | - |
| 1778008482 | 25.56° C | 35% | 1019.7 hPa | 0 mm | - | 39 W/m² | - |
| 1778008178 | 25.56° C | 36% | 1019.7 hPa | 0 mm | - | 40 W/m² | - |
| 1778007873 | 25.56° C | 36% | 1019.9 hPa | 0 mm | - | 46 W/m² | - |
| 1778007569 | 25.56° C | 36% | 1020.1 hPa | 0 mm | - | 36 W/m² | - |
| 1778007267 | 25.56° C | 37% | 1020.1 hPa | 0 mm | - | 63 W/m² | - |
| 1778006963 | 25.56° C | 38% | 1020.4 hPa | 0 mm | - | 46 W/m² | - |
| 1778006660 | 25.56° C | 38% | 1020.2 hPa | 0 mm | - | 50 W/m² | - |
| 1778006357 | 25° C | 38% | 1020.4 hPa | 0 mm | - | 58 W/m² | - |
| 1778006053 | 24.44° C | 40% | 1020.5 hPa | 0 mm | - | 72 W/m² | - |
| 1778005750 | 25° C | 39% | 1020.5 hPa | 0 mm | - | 77 W/m² | - |
| 1778005447 | 25° C | 39% | 1020.5 hPa | 0 mm | - | 134 W/m² | - |
| 1778005143 | 25° C | 40% | 1020.4 hPa | 0 mm | - | 86 W/m² | - |
| 1778004841 | 25° C | 38% | 1020.8 hPa | 0 mm | - | 111 W/m² | - |
| 1778004537 | 25° C | 36% | 1021 hPa | 0 mm | - | 67 W/m² | - |
| 1778004234 | 25° C | 38% | 1020.9 hPa | 0 mm | - | 59 W/m² | - |
| 1778003930 | 25° C | 39% | 1020.8 hPa | 0 mm | - | 73 W/m² | - |
| 1778003627 | 25° C | 39% | 1021.3 hPa | 0 mm | - | 357 W/m² | - |
| 1778003323 | 25° C | 40% | 1021.1 hPa | 0 mm | - | 716 W/m² | - |
| 1778003021 | 24.44° C | 40% | 1021.2 hPa | 0 mm | - | 729 W/m² | - |
| 1778002717 | 24.44° C | 40% | 1021.3 hPa | 0 mm | - | 753 W/m² | - |
| 1778002413 | 24.44° C | 40% | 1021.4 hPa | 0 mm | - | 752 W/m² | - |
| 1778002111 | 25° C | 38% | 1021.2 hPa | 0 mm | - | 751 W/m² | - |
* Rain latest hour (hover to see other rain measurements)
** Current wind speed in m/s (hover to see current wind gust speed)